Content
SEND FEEDBACK

Daily
Averages
Monthly
Summary
United States of America

RAPID CITY, SOUTH DAKOTA


Home > North America > United States > South Dakota
Elevation: 3162 feet     Latitude: 44 03N     Longitude: 103 04W

WEATHER
 
SELECT A DAY
Number of Records: 200,148;   Date Range: 1/1/95 - 7/7/14
 
SHARE

PRINT THIS DATA

[ ← Previous Day ]
WEATHER ALMANAC - JANUARY 28, 2013
[ Next Day → ]
[ °C ]   °F
Weather ElementAverageHighLow
Temperature29.4 °F32 °F (1:52 am)18 °F (11:52 pm)
Dewpoint27.3 °F28.9 °F (3:52 am)15.1 °F (11:52 pm)
Humidity91.9 %100 % (5:41 pm)85 % (1:52 am)
Barometer29.79 in29.89 in (10:52 am)29.73 in (3:34 am)
Wind Speed10.7 mph18.4 mph (6:00 am)
Wind Gust21.9 mph (5:52 am)
Weather ElementAverage
Visibility5.2 mi
Wind DirectionWNW (292.6 °)

Weather ElementTotal
Precipitation0.13 in
Heating Degree Days40 (Base 65)
Averaged from 54 records on January 28, 2013
WEATHER CONDITIONS BREAKOUT
WIND DIRECTION BREAKOUT
WEATHER BY HOUR - JANUARY 28, 2013
[ °C ]   °F
Local TimeTemperatureDewpointHumidityBarometerVisibilityWind DirectionWind SpeedGust SpeedPrecipitationEventsConditions
12:52 AM28.0 °F25.0 °F88 %29.81 in10.0 miWNW (290°)3.5 mphOvercast
1:52 AM32.0 °F28.0 °F85 %29.79 in10.0 miNorth (360°)13.8 mphOvercast
2:22 AM32.0 °F28.4 °F87 %29.75 in10.0 miNorth (360°)11.5 mphOvercast
2:33 AM30.2 °F28.4 °F93 %29.76 in10.0 miNorth (360°)10.4 mphOvercast
2:52 AM32.0 °F28.0 °F85 %29.80 in10.0 miNorth (350°)15.0 mphOvercast
3:34 AM30.2 °F28.4 °F93 %29.73 in10.0 miNorth (350°)17.3 mphOvercast
3:52 AM30.9 °F28.9 °F92 %29.83 in10.0 miNorth (350°)15.0 mphOvercast
4:52 AM30.9 °F28.0 °F89 %29.83 in4.0 miNorth (350°)15.0 mph0.00 inSnowLight Snow
5:02 AM30.2 °F28.4 °F93 %29.74 in1.8 miNorth (350°)17.3 mph0.00 inSnowLight Snow
5:14 AM30.2 °F28.4 °F93 %29.75 in2.5 miNorth (350°)15.0 mph0.00 inSnowLight Snow
5:16 AM30.2 °F28.4 °F93 %29.75 in3.0 miNNW (340°)16.1 mph0.00 inSnowLight Snow
5:25 AM30.2 °F28.4 °F93 %29.76 in4.0 miNorth (350°)12.7 mph0.00 inSnowLight Snow
5:52 AM30.0 °F28.0 °F92 %29.82 in3.0 miNNW (340°)17.3 mph21.9 mph0.01 inSnowLight Snow
6:00 AM30.2 °F28.4 °F93 %29.74 in2.5 miNorth (350°)18.4 mph0.00 inSnowLight Snow
6:09 AM30.2 °F28.4 °F93 %29.76 in4.0 miNNW (340°)11.5 mph0.00 inSnowLight Snow
6:52 AM30.0 °F28.0 °F92 %29.86 in10.0 miNorth (350°)10.4 mph0.00 inOvercast
7:52 AM30.0 °F28.0 °F92 %29.85 in3.0 miNNW (340°)13.8 mph0.00 inSnowLight Snow
8:33 AM30.2 °F28.4 °F93 %29.77 in8.0 miNorth (350°)12.7 mph0.00 inSnowLight Snow
8:52 AM30.0 °F28.0 °F92 %29.86 in3.0 miNorth (360°)8.1 mph0.01 inSnowLight Snow
8:59 AM30.2 °F28.4 °F93 %29.77 in1.2 miNNW (340°)9.2 mph0.00 inSnowLight Snow
9:09 AM30.2 °F28.4 °F93 %29.77 in2.0 miNNW (340°)10.4 mph0.00 inSnowLight Snow
9:19 AM30.2 °F28.4 °F93 %29.78 in2.0 miNNW (340°)12.7 mph0.00 inSnowLight Snow
9:26 AM30.2 °F28.4 °F93 %29.79 in2.0 miNNW (340°)9.2 mph0.00 inSnowLight Snow
9:30 AM30.2 °F28.4 °F93 %29.78 in3.0 miNNW (340°)10.4 mph0.00 inSnowLight Snow
9:45 AM30.2 °F28.4 °F93 %29.79 in5.0 miNNW (340°)11.5 mph0.00 inOvercast
9:52 AM30.9 °F28.0 °F89 %29.88 in5.0 miNNW (340°)12.7 mph0.00 inSnowLight Snow
10:12 AM30.2 °F28.4 °F93 %29.80 in8.0 miNNW (340°)10.4 mphSnowLight Snow
10:48 AM30.2 °F28.4 °F93 %29.80 in3.0 miNorth (350°)11.5 mph0.01 inSnowLight Snow
10:52 AM30.9 °F28.0 °F89 %29.89 in3.0 miNorth (350°)11.5 mph0.01 inSnowLight Snow
11:30 AM30.2 °F28.4 °F93 %29.77 in2.5 miNorth (360°)15.0 mph0.00 inSnowLight Snow
11:52 AM30.9 °F28.0 °F89 %29.86 in2.0 miNorth (360°)13.8 mph0.00 inSnowLight Snow
12:10 PM30.2 °F28.4 °F93 %29.76 in3.0 miNorth (350°)13.8 mph0.00 inSnowLight Snow
12:34 PM30.2 °F28.4 °F93 %29.75 in2.5 miNorth (350°)15.0 mph0.01 inSnowLight Snow
12:47 PM30.2 °F28.4 °F93 %29.75 in1.2 miNorth (350°)15.0 mph0.01 inSnowLight Snow
12:52 PM30.9 °F28.0 °F89 %29.84 in1.2 miNorth (350°)16.1 mph0.01 inSnowLight Snow
1:06 PM30.2 °F28.4 °F93 %29.75 in1.2 miNNW (340°)13.8 mph0.00 inSnowLight Snow
1:52 PM30.9 °F28.0 °F89 %29.82 in1.0 miNNW (340°)11.5 mph0.02 inSnowLight Snow
2:22 PM30.2 °F28.4 °F93 %29.73 in2.0 miNorth (350°)13.8 mph0.00 inSnowLight Snow
2:31 PM30.2 °F28.4 °F93 %29.73 in1.8 miNorth (350°)11.5 mph0.01 inSnowLight Snow
2:52 PM30.0 °F28.0 °F92 %29.82 in1.5 miNorth (350°)12.7 mph0.01 inSnowLight Snow
3:52 PM28.9 °F27.0 °F92 %29.83 in1.2 miNorth (10°)10.4 mph0.02 inSnowLight Snow
4:24 PM28.4 °F26.6 °F93 %29.74 in2.0 miNorth (10°)11.5 mph0.00 inSnowLight Snow
4:35 PM28.4 °F26.6 °F93 %29.74 in4.0 miNorth (10°)8.1 mph0.00 inSnowLight Snow
4:52 PM28.9 °F26.1 °F89 %29.83 in4.0 miNorth (360°)8.1 mph0.00 inSnowLight Snow
5:11 PM28.4 °F26.6 °F93 %29.74 in7.0 miNorth (350°)4.6 mph0.00 inSnowLight Snow
5:23 PM28.4 °F26.6 °F93 %29.75 in9.0 miNNW (330°)4.6 mph0.00 inSnowLight Snow
5:41 PM26.6 °F26.6 °F100 %29.75 in10.0 miCalm0.00 inOvercast
5:52 PM27.0 °F25.0 °F92 %29.85 in10.0 miCalm0.00 inOvercast
6:52 PM27.0 °F25.0 °F92 %29.85 in10.0 miCalmOvercast
7:52 PM27.0 °F26.1 °F96 %29.85 in10.0 miCalmOvercast
8:52 PM27.0 °F25.0 °F92 %29.83 in8.0 miCalm0.00 inSnowLight Snow
9:52 PM26.1 °F24.1 °F92 %29.83 in10.0 miWest (270°)3.5 mph0.00 inOvercast
10:52 PM21.9 °F21.0 °F96 %29.81 in10.0 miWNW (290°)4.6 mphMostly Cloudy
11:52 PM18.0 °F15.1 °F88 %29.82 in10.0 miNW (310°)4.6 mphOvercast
Hourly data recorded from KRAP, located miles away from Rapid City, South Dakota







STORIES FROM OUR PARTNERS